Hill Air Force Base, UT

1:25 AM MDT on October 01, 2016 (GMT -0600)
Hill Air Force Base

Weather History for KHIF - January, 2014

Change the Weather History Date:

Tuesday, January 28, 2014

  Actual Average Record
Temperature  
Mean Temperature 27 °F -  
Max Temperature 35 °F 34 °F 46 °F (2003)
Min Temperature 19 °F 22 °F 12 °F (2002)
Degree Days  
Heating Degree Days 38    
Moisture  
Dew Point 13 °F    
Average Humidity 53    
Maximum Humidity 72    
Minimum Humidity 35    
Precipitation  
Precipitation 0.00 in - - ()
Snow  
Snow 0.00 in - - ()
Snow Depth 4.00 in    
Sea Level Pressure  
Sea Level Pressure 30.29 in    
Wind  
Wind Speed 7 mph (East)    
Max Wind Speed 16 mph    
Max Gust Speed -    
Visibility 10 miles    
Events      
Averages and records for this station are not official NWS values.
T = Trace of Precipitation, MM = Missing Value Source: NWS Daily Summary

Daily Weather History Graph

Daily Weather History Graph

Search for Another Location

Airport or City:

Trip Planner

Search our weather history database for the weather conditions in past years. The results will help you decide how hot, cold, wet, or windy it might be!

Date:

Astronomy

Jan. 28, 2014 Rise Set
Actual Time 7:42 AM MST 5:39 PM MST
Civil Twilight 7:12 AM MST 6:09 PM MST
Nautical Twilight 6:39 AM MST 6:42 PM MST
Astronomical Twilight 6:07 AM MST 7:14 PM MST
Moon 5:27 AM MST (1/28) 3:33 PM MST (1/28)
Length of Visible Light 10h 56m
Length of Day
9h 57m
Waning Crescent, 7% of the Moon is Illuminated
Jan 28
Waning Crescent
Jan 30
New
Feb 6
First Quarter
Feb 14
Full
Feb 22
Last Quarter

Hourly Weather History & Observations

Time (MST) Temp. Windchill Dew Point Humidity Pressure Visibility Wind Dir Wind Speed Gust Speed Precip Events Conditions
12:53 AM 24.8 °F 19.1 °F 15.8 °F 69% 30.23 in 10.0 mi West 4.6 mph - N/A   Clear
12:58 AM 24.1 °F - 16.2 °F 72% 30.27 in 10.0 mi West 2.3 mph - N/A   Clear
1:58 AM 24.4 °F 15.6 °F 13.5 °F 63% 30.26 in 10.0 mi ESE 8.1 mph - N/A   Clear
2:58 AM 26.4 °F 16.6 °F 9.5 °F 49% 30.27 in 10.0 mi ESE 10.4 mph - N/A   Clear
3:58 AM 23.9 °F 15.0 °F 10.9 °F 58% 30.30 in 10.0 mi East 8.1 mph - N/A   Clear
4:58 AM 23.2 °F 12.6 °F 10.4 °F 58% 30.25 in 10.0 mi East 10.4 mph - N/A   Clear
5:58 AM 21.2 °F 8.9 °F 10.4 °F 63% 30.25 in 10.0 mi ESE 12.7 mph - N/A   Clear
6:58 AM 21.0 °F 8.6 °F 9.1 °F 60% 30.27 in 10.0 mi ESE 12.7 mph - N/A   Clear
7:58 AM 19.9 °F 5.7 °F 8.6 °F 61% 30.36 in 10.0 mi ESE 16.1 mph - N/A   Partly Cloudy
8:58 AM 21.6 °F 8.8 °F 8.4 °F 57% 30.38 in 10.0 mi ESE 13.8 mph - N/A   Partly Cloudy
9:58 AM 24.6 °F 13.8 °F 9.9 °F 54% 30.30 in 10.0 mi ESE 11.5 mph - N/A   Clear
10:58 AM 27.0 °F 18.0 °F 12.2 °F 54% 30.31 in 10.0 mi ESE 9.2 mph - N/A   Clear
11:58 AM 30.7 °F 26.0 °F 12.0 °F 46% 30.38 in 10.0 mi ESE 4.6 mph - N/A   Clear
12:58 PM 33.3 °F - 11.3 °F 40% 30.35 in 10.0 mi Calm Calm - N/A   Scattered Clouds
1:58 PM 34.0 °F - 12.4 °F 41% 30.32 in 10.0 mi WNW 2.3 mph - N/A   Scattered Clouds
2:58 PM 35.2 °F 31.2 °F 12.9 °F 40% 30.30 in 10.0 mi West 4.6 mph - N/A   Scattered Clouds
3:58 PM 35.8 °F - 10.2 °F 35% 30.30 in 10.0 mi Calm Calm - N/A   Scattered Clouds
4:58 PM 33.3 °F - 16.3 °F 50% 30.30 in 10.0 mi NW 2.3 mph - N/A   Mostly Cloudy
5:58 PM 31.6 °F 26.0 °F 15.4 °F 51% 30.32 in 10.0 mi NW 5.8 mph - N/A   Overcast
6:58 PM 31.6 °F - 15.3 °F 51% 30.31 in 10.0 mi North 2.3 mph - N/A   Mostly Cloudy
7:58 PM 28.8 °F 22.6 °F 12.7 °F 51% 30.33 in 10.0 mi North 5.8 mph - N/A   Mostly Cloudy
8:28 PM 28.4 °F 24.6 °F 14.0 °F 55% 30.25 in 10.0 mi North 3.5 mph - N/A   Mostly Cloudy
8:38 PM 28.4 °F 24.6 °F 14.0 °F 55% 30.24 in 10.0 mi NNE 3.5 mph - N/A   Overcast
8:48 PM 28.4 °F 22.2 °F 14.0 °F 55% 30.24 in 10.0 mi NE 5.8 mph - N/A   Mostly Cloudy
8:53 PM 28.4 °F 22.2 °F 14.0 °F 55% 30.24 in 10.0 mi NE 5.8 mph - N/A   Mostly Cloudy
8:58 PM 28.8 °F 25.0 °F 14.9 °F 56% 30.34 in 10.0 mi ENE 3.5 mph - N/A   Mostly Cloudy
9:13 PM 28.4 °F 24.6 °F 15.8 °F 59% 30.25 in 10.0 mi ESE 3.5 mph - N/A   Mostly Cloudy
9:23 PM 30.2 °F 25.4 °F 15.8 °F 55% 30.25 in 10.0 mi East 4.6 mph - N/A   Scattered Clouds
9:58 PM 30.6 °F 24.7 °F 14.0 °F 50% 30.32 in 10.0 mi East 5.8 mph - N/A   Scattered Clouds
10:33 PM 32.0 °F 26.4 °F 14.0 °F 48% 30.25 in 10.0 mi SE 5.8 mph - N/A   Mostly Cloudy
10:58 PM 29.7 °F 22.0 °F 12.7 °F 49% 30.30 in 10.0 mi East 8.1 mph - N/A   Mostly Cloudy
11:58 PM 29.3 °F 23.2 °F 13.5 °F 52% 30.25 in 10.0 mi ESE 5.8 mph - N/A   Overcast